This demonstration page uses our WeatherBlox Daily Observations layout. Learn more.

Left ArrowRight Arrow

44.89941, -97.11507

Hourly Observations for June 18, 2016

Temp ( °F °C ) Dew Point ( °F °C ) Humidity (%) Winds ( mph kmh ) Pressure ( in mb ) Visibility ( mi km ) Precip ( " mm )
12:53 am 00:53 Clear 66 18.9 59 15 78 78 SSW 6 9 30.07 1018 10 16 0.00 0.00
1:53 am 01:53 Clear 67 19.4 60 15.6 79 79 SSW 6 9 30.08 1019 10 16 0.00 0.00
2:53 am 02:53 Clear 65 18.3 60 15.6 84 84 NE 5 7 30.12 1020 10 16 0.00 0.00
3:53 am 03:53 Clear 66 18.9 58 14.4 75 75 Calm 30.14 1021 10 16 0.00 0.00
4:53 am 04:53 Clear 66 18.9 59 15 78 78 ESE 6 9 30.13 1020 10 16 0.00 0.00
5:53 am 05:53 Sunny 66 18.9 61 16.1 84 84 E 5 7 30.16 1021 10 16 0.00 0.00
6:53 am 06:53 Sunny 67 19.4 61 16.1 81 81 E 8 13 30.16 1021 10 16 0.00 0.00
7:53 am 07:53 Sunny 71 21.7 61 16.1 71 71 ESE 8 13 30.16 1021 10 16 0.00 0.00
8:53 am 08:53 Sunny 73 22.8 60 15.6 64 64 SE 8 13 30.20 1023 10 16 0.00 0.00
9:53 am 09:53 Sunny 76 24.4 60 15.6 58 58 WSW 9 15 30.22 1023 10 16 0.00 0.00
10:53 am 10:53 Sunny 77 25 60 15.6 56 56 Calm 30.21 1023 10 16 0.00 0.00
11:53 am 11:53 Sunny 81 27.2 62 16.7 53 53 VRB 5 7 30.19 1023 10 16 0.00 0.00
12:53 pm 12:53 Sunny 82 27.8 63 17.2 53 53 WNW 8 13 30.17 1022 10 16 0.00 0.00
1:53 pm 13:53 Sunny 84 28.9 62 16.7 48 48 VRB 7 11 30.15 1021 10 16 0.00 0.00
2:53 pm 14:53 Sunny 83 28.3 62 16.7 49 49 SSE 14 22 30.12 1020 10 16 0.00 0.00
3:53 pm 15:53 Sunny 84 28.9 63 17.2 49 49 S 16 26 30.11 1020 10 16 0.00 0.00
4:53 pm 16:53 Sunny 85 29.4 60 15.6 43 43 S 15 24 30.11 1020 10 16 0.00 0.00
5:53 pm 17:53 Sunny 84 28.9 61 16.1 46 46 S 14 22 30.09 1019 10 16 0.00 0.00
6:53 pm 18:53 Sunny 83 28.3 60 15.6 46 46 S 15 24 30.08 1019 10 16 0.00 0.00
7:53 pm 19:53 Sunny 81 27.2 61 16.1 51 51 S 16 26 30.07 1018 10 16 0.00 0.00
8:53 pm 20:53 Sunny 78 25.6 61 16.1 56 56 S 9 15 30.08 1019 10 16 0.00 0.00
9:53 pm 21:53 Clear 76 24.4 63 17.2 64 64 SSE 12 19 30.07 1018 10 16 0.00 0.00
10:53 pm 22:53 Clear 75 23.9 65 18.3 71 71 S 14 22 30.06 1018 10 16 0.00 0.00
11:53 pm 23:53 Clear 73 22.8 67 19.4 81 81 S 13 20 30.04 1017 10 16 0.00 0.00

Powered by AerisWeather